Location: Pedimozza
(42.0500°N, 9.3500°E)
Time: 00:53:11
(UTC+00:00)

Abrixas rocket - Pass Details

Date: 19 August 2019
Orbit: 364 x 371 km, 48.4° (Epoch: 18 September)

Event Time Altitude Azimuth Distance (km) Brightness Sun altitude
Rises 19:25:59 0° 241° (WSW) 2,211 6.4 -12.4°
Reaches altitude 10° 19:28:01 10° 242° (WSW) 1,367 5.3 -12.7°
Maximum altitude 19:31:05 89° 337° (NNW) 376 1.9 -13.2°
Enters shadow 19:33:56 12° 62° (ENE) 1,280 4.4 -13.7°
